Location: Little Arabia
(41.4620°N, 81.7687°W)
Time: 19:24:46
(UTC+00:00)

Okean-O - Pass Details

Date: 29 October 2020
Orbit: 638 x 641 km, 98.2° (Epoch: 03 December)

Event Time Altitude Azimuth Distance (km) Brightness Sun altitude
Rises 22:51:48 0° 127° (SE) 2,937 5.6 -5.6°
Reaches altitude 10° 22:54:32 10° 109° (ESE) 2,032 4.7 -6.1°
Maximum altitude 22:57:36 19° 65° (ENE) 1,537 4.0 -6.7°
Drops below altitude 10° 23:00:41 10° 21° (NNE) 2,041 4.9 -7.3°
Sets 23:03:26 0° 3° (N) 2,955 5.9 -7.8°
